TimeAST,TemperatureF,Dew PointF,Humidity,Sea Level PressureIn,VisibilityMPH,Wind Direction,Wind SpeedMPH,Gust SpeedMPH,PrecipitationIn,Events,Conditions,WindDirDegrees,DateUTC
12:53 AM,75.0,68.0,79,29.99,10.0,East,10.4,-,N/A,,Clear,80,2013-01-12 04:53:00
1:53 AM,75.0,66.9,76,29.98,10.0,East,8.1,-,N/A,,Partly Cloudy,80,2013-01-12 05:53:00
2:53 AM,75.0,66.9,76,29.96,10.0,ENE,11.5,-,N/A,,Clear,70,2013-01-12 06:53:00
3:53 AM,75.0,66.0,73,29.95,10.0,ENE,10.4,17.3,N/A,,Clear,70,2013-01-12 07:53:00
4:53 AM,73.9,66.0,76,29.95,10.0,East,6.9,-,N/A,,Partly Cloudy,90,2013-01-12 08:53:00
5:53 AM,75.0,69.1,82,29.96,10.0,ENE,9.2,-,N/A,,Mostly Cloudy,60,2013-01-12 09:53:00
6:53 AM,73.9,68.0,82,29.97,10.0,East,5.8,-,N/A,,Partly Cloudy,90,2013-01-12 10:53:00
7:53 AM,75.0,69.1,82,29.99,10.0,East,9.2,-,N/A,,Clear,90,2013-01-12 11:53:00
8:53 AM,78.1,69.1,74,30.00,10.0,ENE,11.5,-,N/A,,Scattered Clouds,60,2013-01-12 12:53:00
9:53 AM,81.0,70.0,69,30.01,10.0,ENE,6.9,17.3,N/A,,Mostly Cloudy,60,2013-01-12 13:53:00
10:48 AM,80.6,69.8,70,29.99,10.0,NE,10.4,18.4,N/A,,Mostly Cloudy,50,2013-01-12 14:48:00
10:53 AM,79.0,69.1,72,29.99,10.0,NE,11.5,18.4,N/A,,Mostly Cloudy,50,2013-01-12 14:53:00
11:53 AM,81.0,68.0,65,29.97,10.0,ENE,12.7,-,N/A,,Partly Cloudy,70,2013-01-12 15:53:00
12:53 PM,82.0,68.0,62,29.96,10.0,ENE,11.5,-,N/A,,Scattered Clouds,60,2013-01-12 16:53:00
1:53 PM,82.0,68.0,62,29.95,10.0,ENE,12.7,18.4,N/A,,Partly Cloudy,60,2013-01-12 17:53:00
2:53 PM,78.1,70.0,76,29.94,10.0,NE,15.0,21.9,N/A,,Overcast,40,2013-01-12 18:53:00
3:53 PM,78.1,69.1,74,29.95,10.0,ENE,15.0,23.0,N/A,,Overcast,60,2013-01-12 19:53:00
4:04 PM,77.0,69.8,78,29.95,10.0,ENE,17.3,25.3,N/A,,Overcast,60,2013-01-12 20:04:00
4:53 PM,77.0,70.0,79,29.96,10.0,ENE,15.0,24.2,N/A,,Overcast,60,2013-01-12 20:53:00
5:40 PM,73.4,69.8,88,29.97,8.0,ENE,13.8,-,N/A,,Overcast,60,2013-01-12 21:40:00
5:48 PM,73.4,69.8,88,29.97,10.0,ENE,16.1,24.2,N/A,,Overcast,60,2013-01-12 21:48:00
5:53 PM,73.0,70.0,90,29.97,7.0,ENE,15.0,24.2,N/A,,Overcast,60,2013-01-12 21:53:00
6:40 PM,73.4,69.8,88,29.97,10.0,ENE,12.7,-,0.01,,Mostly Cloudy,60,2013-01-12 22:40:00
6:53 PM,73.0,70.0,90,29.97,8.0,East,11.5,24.2,0.01,,Overcast,80,2013-01-12 22:53:00
7:00 PM,73.4,69.8,88,29.96,9.0,ENE,17.3,-,N/A,,Overcast,60,2013-01-12 23:00:00
7:53 PM,73.9,69.1,85,29.98,10.0,ENE,12.7,21.9,N/A,,Mostly Cloudy,70,2013-01-12 23:53:00
8:53 PM,73.9,69.1,85,29.98,10.0,ENE,13.8,19.6,N/A,,Partly Cloudy,70,2013-01-13 00:53:00
9:53 PM,75.0,68.0,79,29.99,10.0,East,12.7,-,N/A,,Scattered Clouds,80,2013-01-13 01:53:00
10:53 PM,75.0,66.0,73,29.99,10.0,ENE,12.7,-,N/A,,Scattered Clouds,70,2013-01-13 02:53:00
11:53 PM,75.0,66.0,73,29.99,10.0,ENE,6.9,-,N/A,,Scattered Clouds,70,2013-01-13 03:53:00